CW8593 Weather Reports


Display with metric or nautical units.
time (UTC)temp
F
wind
direction
speed
MPH
gust
MPH
rain 1hr
in
rain 24hr
in
rain mn
in
humidity
%
barometer
mb
20150705172227 88 223 7.0 17.0 0.00 0.00 0.00 39 1016.5
20150705171225 88 192 5.0 12.0 0.00 0.00 0.00 39 1016.5
20150705170225 88 182 6.0 15.0 0.00 0.00 0.00 39 1016.5
20150705165226 88 204 5.0 17.0 0.00 0.00 0.00 40 1016.5
20150705163227 88 176 9.0 16.0 0.00 0.00 0.00 42 1016.5
20150705162226 89 190 10.0 16.0 0.00 0.00 0.00 40 1016.5
20150705161225 89 198 4.0 14.0 0.00 0.00 0.00 41 1016.5
20150705160225 88 174 9.0 20.0 0.00 0.00 0.00 41 1016.5
20150705155224 88 175 8.0 17.0 0.00 0.00 0.00 42 1016.6
20150705154225 88 184 9.0 17.0 0.00 0.00 0.00 45 1016.7
20150705153227 87 183 10.0 20.0 0.00 0.00 0.00 47 1016.7
20150705151225 89 153 9.0 17.0 0.00 0.00 0.00 45 1016.7
20150705150224 89 180 8.0 16.0 0.00 0.00 0.00 45 1016.7
20150705143226 89 202 9.0 17.0 0.00 0.00 0.00 44 1016.8
20150705142224 89 159 9.0 18.0 0.00 0.00 0.00 46 1016.9
20150705140224 89 180 8.0 20.0 0.00 0.00 0.00 46 1017.0
20150705135224 89 176 7.0 21.0 0.00 0.00 0.00 47 1017.0
20150705133224 88 164 10.0 20.0 0.00 0.00 0.00 48 1017.1
20150705132225 88 179 10.0 20.0 0.00 0.00 0.00 48 1017.1
20150705130225 88 185 11.0 20.0 0.00 0.00 0.00 48 1017.3
20150705124224 88 205 8.0 20.0 0.00 0.00 0.00 51 1017.3
20150705123224 88 184 12.0 20.0 0.00 0.00 0.00 50 1017.5
20150705113225 89 133 5.0 18.0 0.00 0.00 0.00 48 1017.5
20150705111226 88 161 9.0 18.0 0.00 0.00 0.00 49 1017.4
20150705102225 89 240 4.0 15.0 0.00 0.00 0.00 49 1017.6
20150705100226 90 186 7.0 16.0 0.00 0.00 0.00 44 1017.6
20150705095226 91 172 5.0 15.0 0.00 0.00 0.00 42 1017.5
20150705094224 90 178 9.0 15.0 0.00 0.00 0.00 41 1017.5
20150705093224 90 185 10.0 17.0 0.00 0.00 0.00 40 1017.6
20150705092225 92 178 4.0 10.0 0.00 0.00 0.00 41 1017.6
20150705091226 91 216 5.0 10.0 0.00 0.00 0.00 40 1017.6
20150705090225 91 219 5.0 15.0 0.00 0.00 0.00 40 1017.6
20150705085224 91 214 2.0 9.0 0.00 0.00 0.00 39 1017.6
20150705084223 90 226 6.0 18.0 0.00 0.00 0.00 39 1017.7
20150705083225 90 259 6.0 14.0 0.00 0.00 0.00 39 1017.7
20150705082223 90 184 8.0 15.0 0.00 0.00 0.00 39 1017.6
20150705081224 90 268 5.0 14.0 0.00 0.00 0.00 40 1017.7
20150705080225 89 278 4.0 10.0 0.00 0.00 0.00 40 1017.7
20150705075223 89 213 6.0 10.0 0.00 0.00 0.00 41 1017.8
20150705074223 88 253 4.0 14.0 0.00 0.00 0.00 41 1017.8
20150705062223 83 330 0.0 1.0 0.00 0.00 0.00 52 1017.6
20150705061223 82 331 0.0 3.0 0.00 0.00 0.00 53 1017.6
20150705060224 82 330 0.0 2.0 0.00 0.00 0.00 52 1017.6
20150705053225 79 292 2.0 3.0 0.00 0.00 0.00 53 1017.6
20150705052223 78 291 0.0 3.0 0.00 0.00 0.00 55 1017.6
20150705050223 77 153 0.0 1.0 0.00 0.00 0.00 57 1017.8
20150705045223 77 153 0.0 2.0 0.00 0.00 0.00 55 1017.7
20150705044223 77 153 0.0 1.0 0.00 0.00 0.00 56 1017.7
20150705042223 76 153 0.0 2.0 0.00 0.00 0.00 58 1017.8
20150705040224 76 153 0.0 1.0 0.00 0.00 0.00 60 1017.8
20150705035223 77 152 0.0 3.0 0.00 0.00 0.00 58 1017.8
20150705033223 74 152 0.0 0.0 0.00 0.00 0.00 63 1017.7
20150705032223 74 153 0.0 0.0 0.00 0.00 0.00 64 1017.7
20150705030224 75 153 0.0 0.0 0.00 0.00 0.00 63 1017.8
20150705025223 75 153 0.0 1.0 0.00 0.00 0.00 64 1017.9
20150705024223 75 152 0.0 1.0 0.00 0.00 0.00 63 1017.9
20150705023223 75 153 0.0 0.0 0.00 0.00 0.00 62 1018.0
20150705022224 76 153 0.0 0.0 0.00 0.00 0.00 62 1018.0
20150705021223 76 153 0.0 1.0 0.00 0.00 0.00 60 1018.1
20150705015223 75 153 0.0 3.0 0.00 0.00 0.00 61 1018.1
20150705014223 75 152 0.0 1.0 0.00 0.00 0.00 62 1018.2
20150705013223 75 153 0.0 3.0 0.00 0.00 0.00 62 1018.2
20150705012224 76 152 0.0 0.0 0.00 0.00 0.00 63 1018.3
20150705011223 76 153 0.0 2.0 0.00 0.00 0.00 62 1018.2
20150705005223 76 153 2.0 3.0 0.00 0.00 0.00 63 1018.4
20150705004223 76 153 0.0 2.0 0.00 0.00 0.00 64 1018.5
20150705002223 75 153 0.0 3.0 0.00 0.00 0.00 66 1018.6
20150705001224 76 153 2.0 3.0 0.00 0.00 0.00 67 1018.7
20150705000224 75 153 0.0 1.0 0.00 0.00 0.00 68 1018.7
20150704235223 76 152 0.0 0.0 0.00 0.00 0.00 70 1018.7
20150704234223 76 153 0.0 0.0 0.00 0.00 0.00 71 1018.9
20150704233223 76 152 0.0 0.0 0.00 0.00 0.00 73 1018.8
20150704232223 76 153 0.0 1.0 0.00 0.00 0.00 73 1018.9
20150704230223 77 153 0.0 0.0 0.00 0.00 0.00 73 1019.0
20150704225223 77 153 0.0 1.0 0.00 0.00 0.00 73 1019.1
20150704224223 76 153 0.0 0.0 0.00 0.00 0.00 74 1019.1
20150704222223 76 153 0.0 0.0 0.00 0.00 0.00 76 1019.1
20150704221223 77 153 0.0 1.0 0.00 0.00 0.00 76 1019.1
20150704220223 77 152 0.0 1.0 0.00 0.00 0.00 76 1019.1
20150704213223 78 153 0.0 0.0 0.00 0.00 0.00 74 1019.3
20150704212223 78 152 0.0 1.0 0.00 0.00 0.00 75 1019.3
20150704210223 78 152 0.0 0.0 0.00 0.00 0.00 75 1019.4
20150704205223 79 153 0.0 1.0 0.00 0.00 0.00 75 1019.4
20150704204223 79 152 0.0 1.0 0.00 0.00 0.00 75 1019.4
20150704203222 79 153 0.0 1.0 0.00 0.00 0.00 75 1019.3
20150704201223 80 153 0.0 3.0 0.00 0.00 0.00 74 1019.2
20150704200224 80 153 0.0 2.0 0.00 0.00 0.00 73 1019.2
20150704195223 80 152 0.0 3.0 0.00 0.00 0.00 73 1019.0
20150704194223 80 153 1.0 3.0 0.00 0.00 0.00 72 1019.1
20150704193223 80 152 1.0 5.0 0.00 0.00 0.00 72 1019.1
20150704191223 81 152 1.0 3.0 0.00 0.00 0.00 73 1019.1
20150704190223 81 152 1.0 3.0 0.00 0.00 0.00 73 1019.2
20150704185222 81 143 2.0 5.0 0.00 0.00 0.00 71 1019.2
20150704184222 82 140 3.0 6.0 0.00 0.00 0.00 70 1019.2
20150704175223 84 209 1.0 10.0 0.00 0.00 0.00 57 1019.0
20150704174224 84 121 5.0 12.0 0.00 0.00 0.00 54 1018.8